Regional Weather Roundup
Issued by NWS New Orleans/Baton Rouge, LA

Home | Current Version | Previous Version | Text Only | Print | Product List | Glossary On
Versions: 1 2 3 4 5 6 7 8 9 10 11 12 13 14 15 16 17 18 19 20 21 22 23 24 25 26 27 28 29 30 31 32 33 34 35 36 37 38 39 40 41 42 43 44 45 46 47 48 49 50
000
ASUS44 KLIX 200513
RWRLIX
NEW ORLEANS REGIONAL WEATHER ROUNDUP
NATIONAL WEATHER SERVICE NEW ORLEANS LA
1100 PM CST SUN FEB 19 2017

NOTE: "FAIR" INDICATES FEW OR NO CLOUDS BELOW 12,000 FEET WITH NO
      SIGNIFICANT WEATHER AND/OR OBSTRUCTIONS TO VISIBILITY.
      SKY/WX - SKY CONDITION AND SIGNIFICANT WEATHER.
      TMP - AIR TEMPERATURE.     DP    - DEWPOINT TEMPERATURE.
      RH  - RELATIVE HUMIDITY.   PRES  - PRESSURE.
      HI  - HEAT INDEX.          WCI   - WIND CHILL INDEX.

*  THESE STATIONS ARE NOT NWS OR FAA STATIONS AND ARE NOT UNDER
   NWS QUALITY CONTROL.

LAZ038-040-048-061>063-065>067-069-200600-
SOUTHEAST LOUISIANA

CITY           SKY/WX    TMP DP  RH WIND       PRES   REMARKS
N.O. AUDUBON   NOT AVBL
N.O. INTL ARPT PTCLDY    66  65  96 SE9       30.06F
N.O. LAKEFRONT CLOUDY    67  66  97 SE12      30.07F
N.O. DOWNTOWN*   N/A     67  65  93 VRB6      30.08F
RESERVE*       CLOUDY    69  67  93 E6        30.06S
SLIDELL        FOG       64  64 100 SE6       30.07F VSB 3/4
BATON ROUGE    CLOUDY    67  65  93 E8        30.03F
BOOTHVILLE     CLOUDY    67  67 100 SE5       30.09F
BELLE CHASSE   CLEAR     66  66 100 SE9       30.06F
BOGALUSA*        N/A     55  51  86 CALM      30.10S
GALLIANO*      CLEAR     67  64  89 SE6       30.06F
NEW ROADS*     CLOUDY    67  64  93 SE9       30.03F
GONZALES*      CLOUDY    68  66  95 SE5       30.04F
HAMMOND*       MOCLDY    63  61  94 SE6       30.07S
HOUMA*         CLEAR     66  65  98 E8        30.05F
PORT FOURCHON* CLEAR     68  68 100 SE13      30.05F

$$

MSZ070-080>082-200600-
SOUTHERN MISSISSIPPI

CITY           SKY/WX    TMP DP  RH WIND       PRES   REMARKS
MCCOMB         CLEAR     57  51  80 SE6       30.07S
GULFPORT       FOG       57  57 100 CALM      30.08S VSB 1/4
BILOXI         FOG       61  61 100 CALM      30.07F VSB 1/2
PASCAGOULA     FOG       55  53  93 CALM      30.08F VSB 1/4

$$

COASTAL OBSERVATIONS
LAKE AND NEARSHORE STATIONS

STATION/POSITION TIME  TEMP    WIND        PRES    WAVE
                       AIR SEA DIR/SP/G            HT/PER
                 (UTC) (F)     (DEG/KT/KT) (MB)    (FT/S)
PASCAGOULA       0448   65     130/  4/  5 1018.2
WAVELAND YACHT   0448   64 63  170/  4/  5 1018.3
GRAND ISLE       0448   67 66  120/  6/  9 1018.2
SOUTHWEST PASS   0448          120/ 12/ 14   N/A
NEW CANAL        0448   67 64  130/  3/  7 1017.3
SHELL BEACH      0448   66 68  150/ 12/ 16 1018.5

OFFSHORE STATIONS

STATION/POSITION TIME  TEMP    WIND        PRES    WAVE
                       AIR SEA DIR/SP/G            HT/PER
                 (UTC) (F)     (DEG/KT/KT) (MB)    (FT/S)

$$




USA.gov is the U.S. government's official web portal to all federal, state and local government web resources and services.